Wetterdaten: Mittwoch, 08.10.2014
Datum Zeit Temperatur Luftfeuchte Luftdruck Regen Wind Richtung Richtung Taupunkt Windchill Windben
08.10.2014 00:00 11,6 C 89 % 1018,1 hPa 0,0 l/m 0,0 km/h (0 Bft) S-SO 157 9,8 C 22,8 C 0,0 km/h (0 Bft)
08.10.2014 00:10 11,4 C 88 % 1018,1 hPa 0,0 l/m 0,0 km/h (0 Bft) S-SO 157 9,5 C 22,8 C 0,0 km/h (0 Bft)
08.10.2014 00:20 11,3 C 87 % 1018,1 hPa 0,0 l/m 0,0 km/h (0 Bft) S-SO 157 9,2 C 22,8 C 0,0 km/h (0 Bft)
08.10.2014 00:30 11,3 C 87 % 1018,1 hPa 0,0 l/m 0,0 km/h (0 Bft) S-SO 157 9,2 C 22,8 C 0,0 km/h (0 Bft)
08.10.2014 00:40 11,4 C 87 % 1018,1 hPa 0,0 l/m 0,0 km/h (0 Bft) S-SO 157 9,3 C 22,8 C 0,0 km/h (0 Bft)
08.10.2014 00:50 11,4 C 87 % 1018,2 hPa 0,0 l/m 0,0 km/h (0 Bft) S-SO 157 9,3 C 22,8 C 0,0 km/h (0 Bft)
08.10.2014 01:00 11,2 C 86 % 1018,2 hPa 0,0 l/m 0,0 km/h (0 Bft) S-SO 157 8,9 C 22,8 C 0,0 km/h (0 Bft)
08.10.2014 01:10 11,0 C 86 % 1018,3 hPa 0,0 l/m 0,0 km/h (0 Bft) S-SO 157 8,7 C 22,8 C 0,0 km/h (0 Bft)
08.10.2014 01:20 10,5 C 86 % 1018,3 hPa 0,0 l/m 0,0 km/h (0 Bft) S-SO 157 8,3 C 22,8 C 0,0 km/h (0 Bft)
08.10.2014 01:30 10,6 C 87 % 1018,2 hPa 0,0 l/m 0,0 km/h (0 Bft) S-SO 157 8,5 C 22,8 C 0,0 km/h (0 Bft)
08.10.2014 01:40 10,9 C 88 % 1018,2 hPa 0,0 l/m 0,0 km/h (0 Bft) S-SO 157 9,0 C 22,8 C 0,0 km/h (0 Bft)
08.10.2014 01:50 11,1 C 87 % 1018,3 hPa 0,0 l/m 0,0 km/h (0 Bft) S-SO 157 9,0 C 22,8 C 0,0 km/h (0 Bft)
08.10.2014 02:00 11,2 C 87 % 1018,3 hPa 0,0 l/m 0,0 km/h (0 Bft) S-SO 157 9,1 C 22,8 C 0,0 km/h (0 Bft)
08.10.2014 02:10 11,3 C 87 % 1018,4 hPa 0,0 l/m 0,0 km/h (0 Bft) S-SO 157 9,2 C 22,8 C 0,0 km/h (0 Bft)
08.10.2014 02:20 11,3 C 87 % 1018,4 hPa 0,0 l/m 0,0 km/h (0 Bft) S-SO 157 9,2 C 22,8 C 0,0 km/h (0 Bft)
08.10.2014 02:30 11,4 C 87 % 1018,6 hPa 0,0 l/m 0,0 km/h (0 Bft) S-SO 157 9,3 C 22,8 C 0,0 km/h (0 Bft)
08.10.2014 02:40 11,3 C 87 % 1018,6 hPa 0,0 l/m 0,0 km/h (0 Bft) S-SO 157 9,2 C 22,8 C 0,0 km/h (0 Bft)
08.10.2014 02:50 11,5 C 87 % 1018,7 hPa 0,0 l/m 0,0 km/h (0 Bft) S-SO 157 9,4 C 22,8 C 0,0 km/h (0 Bft)
08.10.2014 03:00 11,9 C 87 % 1018,7 hPa 0,0 l/m 0,0 km/h (0 Bft) S-SO 157 9,8 C 22,8 C 0,0 km/h (0 Bft)
08.10.2014 03:10 12,3 C 86 % 1018,8 hPa 0,0 l/m 0,0 km/h (0 Bft) S-SO 157 10,0 C 22,8 C 0,0 km/h (0 Bft)
08.10.2014 03:20 11,8 C 86 % 1018,8 hPa 0,0 l/m 0,0 km/h (0 Bft) S-SO 157 9,5 C 22,8 C 0,0 km/h (0 Bft)
08.10.2014 03:30 12,1 C 85 % 1018,6 hPa 0,0 l/m 0,0 km/h (0 Bft) S-SO 157 9,7 C 22,8 C 0,0 km/h (0 Bft)
08.10.2014 03:40 11,6 C 85 % 1018,6 hPa 0,0 l/m 0,0 km/h (0 Bft) S-SO 157 9,2 C 22,8 C 0,0 km/h (0 Bft)
08.10.2014 03:50 11,8 C 85 % 1018,6 hPa 0,0 l/m 0,0 km/h (0 Bft) S-SO 157 9,4 C 22,8 C 0,0 km/h (0 Bft)
08.10.2014 04:00 11,4 C 85 % 1018,6 hPa 0,0 l/m 0,0 km/h (0 Bft) S-SO 157 9,0 C 22,8 C 0,0 km/h (0 Bft)
08.10.2014 04:10 11,2 C 85 % 1018,5 hPa 0,0 l/m 0,0 km/h (0 Bft) S-SO 157 8,8 C 22,8 C 0,0 km/h (0 Bft)
08.10.2014 04:20 11,2 C 86 % 1018,5 hPa 0,0 l/m 0,0 km/h (0 Bft) S-SO 157 8,9 C 22,8 C 0,0 km/h (0 Bft)
08.10.2014 04:30 11,3 C 86 % 1018,2 hPa 0,0 l/m 0,0 km/h (0 Bft) S-SO 157 9,0 C 22,8 C 0,0 km/h (0 Bft)
08.10.2014 04:40 11,2 C 86 % 1018,2 hPa 0,0 l/m 0,0 km/h (0 Bft) S-SO 157 8,9 C 22,8 C 0,0 km/h (0 Bft)
08.10.2014 04:50 11,1 C 87 % 1018,3 hPa 0,0 l/m 0,0 km/h (0 Bft) S-SO 157 9,0 C 22,8 C 0,0 km/h (0 Bft)
08.10.2014 04:58 10,8 C 87 % 1018,3 hPa 0,0 l/m 0,0 km/h (0 Bft) S-SO 157 8,7 C 22,8 C 0,0 km/h (0 Bft)
08.10.2014 05:00 10,8 C 87 % 1018,3 hPa 0,0 l/m 0,0 km/h (0 Bft) S-SO 157 8,7 C 22,8 C 0,0 km/h (0 Bft)
08.10.2014 05:10 10,7 C 87 % 1018,3 hPa 0,0 l/m 0,0 km/h (0 Bft) S-SO 157 8,6 C 22,8 C 0,0 km/h (0 Bft)
08.10.2014 05:20 10,4 C 87 % 1018,3 hPa 0,0 l/m 0,0 km/h (0 Bft) S-SO 157 8,3 C 22,8 C 0,0 km/h (0 Bft)
08.10.2014 05:30 10,6 C 88 % 1018,2 hPa 0,0 l/m 0,0 km/h (0 Bft) S-SO 157 8,7 C 22,8 C 0,0 km/h (0 Bft)
08.10.2014 05:40 10,8 C 88 % 1018,2 hPa 0,0 l/m 0,0 km/h (0 Bft) S-SO 157 8,9 C 22,8 C 0,0 km/h (0 Bft)
08.10.2014 05:50 10,6 C 88 % 1017,9 hPa 0,0 l/m 0,0 km/h (0 Bft) S-SO 157 8,7 C 22,8 C 0,0 km/h (0 Bft)
08.10.2014 06:00 10,3 C 88 % 1017,9 hPa 0,0 l/m 0,0 km/h (0 Bft) S-SO 157 8,4 C 22,8 C 0,0 km/h (0 Bft)
08.10.2014 06:10 9,9 C 88 % 1017,9 hPa 0,0 l/m 0,0 km/h (0 Bft) S-SO 157 8,0 C 22,8 C 0,0 km/h (0 Bft)
08.10.2014 06:20 9,6 C 88 % 1017,9 hPa 0,0 l/m 0,0 km/h (0 Bft) S-SO 157 7,7 C 22,8 C 0,0 km/h (0 Bft)
08.10.2014 06:30 9,8 C 89 % 1017,6 hPa 0,0 l/m 0,0 km/h (0 Bft) S-SO 157 8,1 C 22,8 C 0,0 km/h (0 Bft)
08.10.2014 06:40 9,3 C 89 % 1017,6 hPa 0,0 l/m 0,0 km/h (0 Bft) S-SO 157 7,6 C 22,8 C 0,0 km/h (0 Bft)
08.10.2014 06:50 9,3 C 89 % 1017,7 hPa 0,0 l/m 0,0 km/h (0 Bft) S-SO 157 7,6 C 22,8 C 0,0 km/h (0 Bft)
08.10.2014 07:00 9,0 C 89 % 1017,7 hPa 0,0 l/m 0,0 km/h (0 Bft) S-SO 157 7,3 C 22,8 C 0,0 km/h (0 Bft)
08.10.2014 07:10 8,9 C 90 % 1017,6 hPa 0,0 l/m 0,0 km/h (0 Bft) S-SO 157 7,4 C 22,8 C 0,0 km/h (0 Bft)
08.10.2014 07:20 8,8 C 90 % 1017,6 hPa 0,0 l/m 0,0 km/h (0 Bft) S-SO 157 7,3 C 22,8 C 0,0 km/h (0 Bft)
08.10.2014 07:30 8,4 C 90 % 1017,6 hPa 0,0 l/m 0,0 km/h (0 Bft) S-SO 157 6,9 C 22,8 C 0,0 km/h (0 Bft)
08.10.2014 07:40 8,3 C 90 % 1017,6 hPa 0,0 l/m 0,0 km/h (0 Bft) S-SO 157 6,8 C 22,8 C 0,0 km/h (0 Bft)
08.10.2014 07:50 8,2 C 90 % 1017,4 hPa 0,0 l/m 0,0 km/h (0 Bft) S-SO 157 6,7 C 22,8 C 0,0 km/h (0 Bft)
08.10.2014 07:58 8,3 C 90 % 1017,4 hPa 0,0 l/m 0,0 km/h (0 Bft) S-SO 157 6,8 C 22,8 C 0,0 km/h (0 Bft)
08.10.2014 08:00 8,3 C 90 % 1017,4 hPa 0,0 l/m 0,0 km/h (0 Bft) S-SO 157 6,8 C 22,8 C 0,0 km/h (0 Bft)
08.10.2014 08:10 8,4 C 90 % 1017,1 hPa 0,0 l/m 0,0 km/h (0 Bft) S-SO 157 6,9 C 22,8 C 0,0 km/h (0 Bft)
08.10.2014 08:20 8,5 C 91 % 1017,1 hPa 0,0 l/m 0,0 km/h (0 Bft) S-SO 157 7,1 C 22,8 C 0,0 km/h (0 Bft)
08.10.2014 08:30 9,3 C 91 % 1017,1 hPa 0,0 l/m 0,0 km/h (0 Bft) S-SO 157 7,9 C 22,8 C 0,0 km/h (0 Bft)
08.10.2014 08:40 9,4 C 91 % 1017,1 hPa 0,0 l/m 0,0 km/h (0 Bft) S-SO 157 8,0 C 22,8 C 0,0 km/h (0 Bft)
08.10.2014 08:50 9,6 C 91 % 1017,1 hPa 0,0 l/m 0,0 km/h (0 Bft) S-SO 157 8,2 C 22,8 C 0,0 km/h (0 Bft)
08.10.2014 09:00 9,6 C 91 % 1017,1 hPa 0,0 l/m 0,0 km/h (0 Bft) S-SO 157 8,2 C 22,8 C 0,0 km/h (0 Bft)
08.10.2014 09:10 10,0 C 91 % 1016,6 hPa 0,0 l/m 0,0 km/h (0 Bft) S-SO 157 8,6 C 22,8 C 0,0 km/h (0 Bft)
08.10.2014 09:20 10,7 C 91 % 1016,6 hPa 0,0 l/m 0,0 km/h (0 Bft) S-SO 157 9,3 C 22,8 C 0,0 km/h (0 Bft)
08.10.2014 09:30 11,4 C 91 % 1016,8 hPa 0,0 l/m 0,0 km/h (0 Bft) S-SO 157 10,0 C 22,8 C 0,0 km/h (0 Bft)
08.10.2014 09:40 12,0 C 89 % 1016,8 hPa 0,0 l/m 0,0 km/h (0 Bft) S-SO 157 10,2 C 22,8 C 0,0 km/h (0 Bft)
08.10.2014 09:50 12,6 C 89 % 1016,5 hPa 0,0 l/m 0,0 km/h (0 Bft) S-SO 157 10,8 C 22,8 C 0,0 km/h (0 Bft)
08.10.2014 10:00 13,3 C 87 % 1016,5 hPa 0,0 l/m 0,0 km/h (0 Bft) S-SO 157 11,2 C 22,8 C 0,0 km/h (0 Bft)
08.10.2014 10:10 14,3 C 82 % 1016,1 hPa 0,0 l/m 0,0 km/h (0 Bft) S-SO 157 11,3 C 22,8 C 0,0 km/h (0 Bft)
08.10.2014 10:20 14,9 C 76 % 1016,1 hPa 0,0 l/m 0,0 km/h (0 Bft) S-SO 157 10,7 C 22,8 C 0,0 km/h (0 Bft)
08.10.2014 10:30 14,8 C 75 % 1016,2 hPa 0,0 l/m 0,0 km/h (0 Bft) S-SO 157 10,4 C 22,8 C 0,0 km/h (0 Bft)
08.10.2014 10:40 14,6 C 74 % 1016,2 hPa 0,0 l/m 0,0 km/h (0 Bft) S-SO 157 10,0 C 22,8 C 0,0 km/h (0 Bft)
08.10.2014 10:50 14,9 C 73 % 1016,1 hPa 0,0 l/m 0,0 km/h (0 Bft) S-SO 157 10,1 C 22,8 C 0,0 km/h (0 Bft)
08.10.2014 10:58 15,7 C 70 % 1016,1 hPa 0,0 l/m 0,0 km/h (0 Bft) S-SO 157 10,2 C 22,8 C 0,0 km/h (0 Bft)
08.10.2014 11:00 15,7 C 70 % 1016,1 hPa 0,0 l/m 0,0 km/h (0 Bft) S-SO 157 10,2 C 22,8 C 0,0 km/h (0 Bft)
08.10.2014 11:10 16,0 C 67 % 1016,2 hPa 0,0 l/m 0,0 km/h (0 Bft) S-SO 157 9,9 C 22,8 C 0,0 km/h (0 Bft)
08.10.2014 11:20 16,1 C 66 % 1016,2 hPa 0,0 l/m 0,0 km/h (0 Bft) S-SO 157 9,7 C 22,8 C 0,0 km/h (0 Bft)
08.10.2014 11:30 16,9 C 65 % 1016,1 hPa 0,0 l/m 0,0 km/h (0 Bft) S-SO 157 10,3 C 22,8 C 0,0 km/h (0 Bft)
08.10.2014 11:40 17,0 C 60 % 1016,1 hPa 0,0 l/m 0,0 km/h (0 Bft) S-SO 157 9,2 C 22,8 C 0,0 km/h (0 Bft)
08.10.2014 11:50 17,1 C 62 % 1016,2 hPa 0,0 l/m 0,0 km/h (0 Bft) S-SO 157 9,8 C 22,8 C 0,0 km/h (0 Bft)
08.10.2014 12:00 17,4 C 60 % 1016,2 hPa 0,0 l/m 0,0 km/h (0 Bft) S-SO 157 9,6 C 22,8 C 0,0 km/h (0 Bft)
08.10.2014 12:10 17,7 C 59 % 1016,0 hPa 0,0 l/m 0,0 km/h (0 Bft) S-SO 157 9,6 C 22,8 C 0,0 km/h (0 Bft)
08.10.2014 12:20 17,8 C 60 % 1016,0 hPa 0,0 l/m 0,0 km/h (0 Bft) S-SO 157 9,9 C 22,8 C 0,0 km/h (0 Bft)
08.10.2014 12:30 18,1 C 61 % 1016,1 hPa 0,0 l/m 0,0 km/h (0 Bft) S-SO 157 10,5 C 22,8 C 0,0 km/h (0 Bft)
08.10.2014 12:40 18,3 C 62 % 1016,1 hPa 0,0 l/m 0,0 km/h (0 Bft) S-SO 157 10,9 C 22,8 C 0,0 km/h (0 Bft)
08.10.2014 12:50 17,9 C 60 % 1016,0 hPa 0,0 l/m 0,0 km/h (0 Bft) S-SO 157 10,0 C 22,8 C 0,0 km/h (0 Bft)
08.10.2014 13:00 18,6 C 61 % 1016,0 hPa 0,0 l/m 0,0 km/h (0 Bft) S-SO 157 10,9 C 22,8 C 0,0 km/h (0 Bft)
08.10.2014 13:10 18,6 C 61 % 1016,0 hPa 0,0 l/m 0,0 km/h (0 Bft) S-SO 157 10,9 C 22,8 C 0,0 km/h (0 Bft)
08.10.2014 13:20 19,0 C 61 % 1016,0 hPa 0,0 l/m 0,0 km/h (0 Bft) S-SO 157 11,3 C 22,8 C 0,0 km/h (0 Bft)
08.10.2014 13:30 18,9 C 61 % 1015,9 hPa 0,0 l/m 0,0 km/h (0 Bft) S-SO 157 11,2 C 22,8 C 0,0 km/h (0 Bft)
08.10.2014 13:40 18,8 C 63 % 1015,9 hPa 0,0 l/m 0,0 km/h (0 Bft) S-SO 157 11,6 C 22,8 C 0,0 km/h (0 Bft)
08.10.2014 13:48 19,2 C 61 % 1015,6 hPa 0,0 l/m 0,0 km/h (0 Bft) S-SO 157 11,5 C 22,8 C 0,0 km/h (0 Bft)
08.10.2014 13:50 19,2 C 61 % 1015,6 hPa 0,0 l/m 0,0 km/h (0 Bft) S-SO 157 11,5 C 22,8 C 0,0 km/h (0 Bft)
08.10.2014 14:00 18,9 C 61 % 1015,6 hPa 0,0 l/m 0,0 km/h (0 Bft) S-SO 157 11,2 C 22,8 C 0,0 km/h (0 Bft)
08.10.2014 14:10 18,6 C 61 % 1015,5 hPa 0,0 l/m 0,0 km/h (0 Bft) S-SO 157 10,9 C 22,8 C 0,0 km/h (0 Bft)
08.10.2014 14:20 19,6 C 63 % 1015,5 hPa 0,0 l/m 0,0 km/h (0 Bft) S-SO 157 12,4 C 22,8 C 0,0 km/h (0 Bft)
08.10.2014 14:30 19,2 C 62 % 1015,4 hPa 0,0 l/m 0,0 km/h (0 Bft) S-SO 157 11,7 C 22,8 C 0,0 km/h (0 Bft)
08.10.2014 14:40 20,1 C 61 % 1015,4 hPa 0,0 l/m 0,0 km/h (0 Bft) S-SO 157 12,3 C 22,8 C 0,0 km/h (0 Bft)
08.10.2014 14:50 19,0 C 61 % 1015,2 hPa 0,0 l/m 0,0 km/h (0 Bft) S-SO 157 11,3 C 22,8 C 0,0 km/h (0 Bft)
08.10.2014 15:00 19,4 C 62 % 1015,2 hPa 0,0 l/m 0,0 km/h (0 Bft) S-SO 157 11,9 C 22,8 C 0,0 km/h (0 Bft)
08.10.2014 15:10 19,6 C 60 % 1015,2 hPa 0,0 l/m 0,0 km/h (0 Bft) S-SO 157 11,6 C 22,8 C 0,0 km/h (0 Bft)
08.10.2014 15:20 19,8 C 61 % 1015,2 hPa 0,0 l/m 0,0 km/h (0 Bft) S-SO 157 12,1 C 22,8 C 0,0 km/h (0 Bft)
08.10.2014 15:30 19,5 C 61 % 1015,1 hPa 0,0 l/m 0,0 km/h (0 Bft) S-SO 157 11,8 C 22,8 C 0,0 km/h (0 Bft)
08.10.2014 15:40 19,6 C 61 % 1015,1 hPa 0,0 l/m 0,0 km/h (0 Bft) S-SO 157 11,9 C 22,8 C 0,0 km/h (0 Bft)
08.10.2014 15:50 20,4 C 60 % 1014,9 hPa 0,0 l/m 0,0 km/h (0 Bft) S-SO 157 12,4 C 22,8 C 0,0 km/h (0 Bft)
08.10.2014 16:00 20,8 C 58 % 1014,9 hPa 0,0 l/m 0,0 km/h (0 Bft) S-SO 157 12,2 C 22,8 C 0,0 km/h (0 Bft)
08.10.2014 16:10 21,6 C 57 % 1015,1 hPa 0,0 l/m 0,0 km/h (0 Bft) S-SO 157 12,7 C 22,8 C 0,0 km/h (0 Bft)
08.10.2014 16:20 21,3 C 57 % 1015,1 hPa 0,0 l/m 0,0 km/h (0 Bft) S-SO 157 12,4 C 22,8 C 0,0 km/h (0 Bft)
08.10.2014 16:30 20,7 C 58 % 1015,1 hPa 0,0 l/m 0,0 km/h (0 Bft) S-SO 157 12,1 C 22,8 C 0,0 km/h (0 Bft)
08.10.2014 16:40 20,0 C 61 % 1015,1 hPa 0,0 l/m 0,0 km/h (0 Bft) S-SO 157 12,2 C 22,8 C 0,0 km/h (0 Bft)
08.10.2014 16:48 19,6 C 63 % 1014,9 hPa 0,0 l/m 0,0 km/h (0 Bft) S-SO 157 12,4 C 22,8 C 0,0 km/h (0 Bft)
08.10.2014 16:50 19,6 C 63 % 1014,9 hPa 0,0 l/m 0,0 km/h (0 Bft) S-SO 157 12,4 C 22,8 C 0,0 km/h (0 Bft)
08.10.2014 17:00 18,7 C 65 % 1014,9 hPa 0,0 l/m 0,0 km/h (0 Bft) S-SO 157 12,0 C 22,8 C 0,0 km/h (0 Bft)
08.10.2014 17:10 18,6 C 67 % 1014,9 hPa 0,0 l/m 0,0 km/h (0 Bft) S-SO 157 12,3 C 22,8 C 0,0 km/h (0 Bft)
08.10.2014 17:20 18,2 C 69 % 1014,9 hPa 0,0 l/m 0,0 km/h (0 Bft) S-SO 157 12,4 C 22,8 C 0,0 km/h (0 Bft)
08.10.2014 17:30 17,9 C 70 % 1014,9 hPa 0,0 l/m 0,0 km/h (0 Bft) S-SO 157 12,3 C 22,8 C 0,0 km/h (0 Bft)
08.10.2014 17:40 17,9 C 71 % 1014,9 hPa 0,0 l/m 0,0 km/h (0 Bft) S-SO 157 12,6 C 22,8 C 0,0 km/h (0 Bft)
08.10.2014 17:50 17,5 C 73 % 1014,8 hPa 0,0 l/m 0,0 km/h (0 Bft) S-SO 157 12,6 C 22,8 C 0,0 km/h (0 Bft)
08.10.2014 18:00 17,1 C 75 % 1014,8 hPa 0,0 l/m 0,0 km/h (0 Bft) S-SO 157 12,6 C 22,8 C 0,0 km/h (0 Bft)
08.10.2014 18:10 16,3 C 77 % 1014,8 hPa 0,0 l/m 0,0 km/h (0 Bft) S-SO 157 12,3 C 22,8 C 0,0 km/h (0 Bft)
08.10.2014 18:20 16,2 C 79 % 1014,8 hPa 0,0 l/m 0,0 km/h (0 Bft) S-SO 157 12,6 C 22,8 C 0,0 km/h (0 Bft)
08.10.2014 18:30 15,7 C 81 % 1014,8 hPa 0,0 l/m 0,0 km/h (0 Bft) S-SO 157 12,4 C 22,8 C 0,0 km/h (0 Bft)
08.10.2014 18:40 15,4 C 82 % 1014,8 hPa 0,0 l/m 0,0 km/h (0 Bft) S-SO 157 12,3 C 22,8 C 0,0 km/h (0 Bft)
08.10.2014 18:50 14,6 C 82 % 1014,5 hPa 0,0 l/m 0,0 km/h (0 Bft) S-SO 157 11,6 C 22,8 C 0,0 km/h (0 Bft)
08.10.2014 19:00 14,0 C 83 % 1014,5 hPa 0,0 l/m 0,0 km/h (0 Bft) S-SO 157 11,2 C 22,8 C 0,0 km/h (0 Bft)
08.10.2014 19:10 13,6 C 85 % 1014,6 hPa 0,0 l/m 0,0 km/h (0 Bft) S-SO 157 11,1 C 22,8 C 0,0 km/h (0 Bft)
08.10.2014 19:20 13,5 C 87 % 1014,6 hPa 0,0 l/m 0,0 km/h (0 Bft) S-SO 157 11,4 C 22,8 C 0,0 km/h (0 Bft)
08.10.2014 19:30 13,3 C 87 % 1014,8 hPa 0,0 l/m 0,0 km/h (0 Bft) S-SO 157 11,2 C 22,8 C 0,0 km/h (0 Bft)
08.10.2014 19:40 12,9 C 88 % 1014,8 hPa 0,0 l/m 0,0 km/h (0 Bft) S-SO 157 11,0 C 22,8 C 0,0 km/h (0 Bft)
08.10.2014 19:48 13,0 C 88 % 1014,8 hPa 0,0 l/m 0,0 km/h (0 Bft) S-SO 157 11,1 C 22,8 C 0,0 km/h (0 Bft)
08.10.2014 19:50 13,0 C 88 % 1014,8 hPa 0,0 l/m 0,0 km/h (0 Bft) S-SO 157 11,1 C 22,8 C 0,0 km/h (0 Bft)
08.10.2014 20:00 12,5 C 89 % 1014,8 hPa 0,0 l/m 0,0 km/h (0 Bft) S-SO 157 10,7 C 22,8 C 0,0 km/h (0 Bft)
08.10.2014 20:10 12,7 C 89 % 1014,9 hPa 0,0 l/m 0,0 km/h (0 Bft) S-SO 157 10,9 C 22,8 C 0,0 km/h (0 Bft)
08.10.2014 20:20 12,3 C 89 % 1014,9 hPa 0,0 l/m 0,0 km/h (0 Bft) S-SO 157 10,5 C 22,8 C 0,0 km/h (0 Bft)
08.10.2014 20:30 12,2 C 89 % 1014,9 hPa 0,0 l/m 0,0 km/h (0 Bft) S-SO 157 10,4 C 22,8 C 0,0 km/h (0 Bft)
08.10.2014 20:40 12,2 C 89 % 1014,9 hPa 0,0 l/m 0,0 km/h (0 Bft) S-SO 157 10,4 C 22,8 C 0,0 km/h (0 Bft)
08.10.2014 20:50 11,5 C 90 % 1014,8 hPa 0,0 l/m 0,0 km/h (0 Bft) S-SO 157 9,9 C 22,8 C 0,0 km/h (0 Bft)
08.10.2014 21:00 11,2 C 90 % 1014,8 hPa 0,0 l/m 0,0 km/h (0 Bft) S-SO 157 9,6 C 22,8 C 0,0 km/h (0 Bft)
08.10.2014 21:10 11,8 C 91 % 1014,8 hPa 0,0 l/m 0,0 km/h (0 Bft) S-SO 157 10,4 C 22,8 C 0,0 km/h (0 Bft)
08.10.2014 21:20 10,8 C 89 % 1014,8 hPa 0,0 l/m 0,0 km/h (0 Bft) S-SO 157 9,1 C 22,8 C 0,0 km/h (0 Bft)
08.10.2014 21:30 10,5 C 89 % 1014,7 hPa 0,0 l/m 0,0 km/h (0 Bft) S-SO 157 8,8 C 22,8 C 0,0 km/h (0 Bft)
08.10.2014 21:40 10,8 C 91 % 1014,7 hPa 0,0 l/m 0,0 km/h (0 Bft) S-SO 157 9,4 C 22,8 C 0,0 km/h (0 Bft)
08.10.2014 21:50 10,8 C 89 % 1014,8 hPa 0,0 l/m 0,0 km/h (0 Bft) S-SO 157 9,1 C 22,8 C 0,0 km/h (0 Bft)
08.10.2014 22:00 10,7 C 88 % 1014,8 hPa 0,0 l/m 0,0 km/h (0 Bft) S-SO 157 8,8 C 22,8 C 0,0 km/h (0 Bft)
08.10.2014 22:10 10,0 C 87 % 1014,6 hPa 0,0 l/m 0,0 km/h (0 Bft) S-SO 157 7,9 C 22,8 C 0,0 km/h (0 Bft)
08.10.2014 22:20 10,1 C 88 % 1014,6 hPa 0,0 l/m 0,0 km/h (0 Bft) S-SO 157 8,2 C 22,8 C 0,0 km/h (0 Bft)
08.10.2014 22:30 9,6 C 88 % 1014,5 hPa 0,0 l/m 0,0 km/h (0 Bft) S-SO 157 7,7 C 22,8 C 0,0 km/h (0 Bft)
08.10.2014 22:40 9,4 C 88 % 1014,5 hPa 0,0 l/m 0,0 km/h (0 Bft) S-SO 157 7,5 C 22,8 C 0,0 km/h (0 Bft)
08.10.2014 22:48 9,5 C 89 % 1014,6 hPa 0,0 l/m 0,0 km/h (0 Bft) S-SO 157 7,8 C 22,8 C 0,0 km/h (0 Bft)
08.10.2014 22:50 9,5 C 89 % 1014,6 hPa 0,0 l/m 0,0 km/h (0 Bft) S-SO 157 7,8 C 22,8 C 0,0 km/h (0 Bft)
08.10.2014 23:00 9,6 C 89 % 1014,6 hPa 0,0 l/m 0,0 km/h (0 Bft) S-SO 157 7,9 C 22,8 C 0,0 km/h (0 Bft)
08.10.2014 23:10 11,4 C 86 % 1014,3 hPa 0,0 l/m 0,0 km/h (0 Bft) S-SO 157 9,1 C 22,8 C 0,0 km/h (0 Bft)
08.10.2014 23:20 11,6 C 83 % 1014,3 hPa 0,0 l/m 0,0 km/h (0 Bft) S-SO 157 8,8 C 22,8 C 0,0 km/h (0 Bft)
08.10.2014 23:30 12,5 C 78 % 1014,2 hPa 0,0 l/m 0,0 km/h (0 Bft) S-SO 157 8,8 C 22,8 C 0,0 km/h (0 Bft)
08.10.2014 23:40 12,7 C 75 % 1014,2 hPa 0,0 l/m 0,0 km/h (0 Bft) S-SO 157 8,4 C 22,8 C 0,0 km/h (0 Bft)
08.10.2014 23:50 12,8 C 74 % 1014,2 hPa 0,0 l/m 0,0 km/h (0 Bft) S-SO 157 8,3 C 22,8 C 0,0 km/h (0 Bft)
_ Min-Zeit 07:50 16:20 23:50 - 23:50 - - 07:50 23:50 23:50
Minimum _ 8,2 C 57 % 1014,2 hPa - 0,0 km/h (0 Bft) - - 6,7 C 22,8 C 0,0 km/h (0 Bft)
_ Max-Zeit 16:10 21:40 03:20 23:50 23:50 - - 16:10 23:50 23:50
Maximum _ 21,6 C 91 % 1018,8 hPa 0,0 l/m 0,0 km/h
S-SO (0 Bft)
- - 12,7 C 22,8 C 0,0 km/h
S-SO (0 Bft)
Durchschnitt _ 13,6 C 80 % 1016,3 hPa #0,0 l/m 0,0 km/h (0 Bft) - - - 9,9 C 22,8 C 0,0 km/h (0 Bft)